Hourly Data Report for September 25, 2020

GIMLI CLIMATE
MANITOBA
Current Station Operator: ECCC - MSC

50°38'00.000" N
97°03'00.000" W
230.10 m
5031042
71748
PGH

Download Data

Hourly Data (September 2020)
Hourly Data Report for September 25, 2020
TIME Temp Definition
°C
Dew Point Definition
°C
Rel Hum Definition
%
Wind Dir Definition
10's deg

Wind Spd Definition
km/h
Visibility Definition
km
Stn Press Definition
kPa
Hmdx Definition


Wind Chill Definition


Weather Definition


00:00 15.8 13.7 87 18 28   97.38     LegendNANA
01:00 16.2 13.8 85 18 15   97.08     LegendNANA
02:00 15.9 13.7 87 19 22   97.24     LegendNANA
03:00 15.2 13.2 88 20 17   97.21     LegendNANA
04:00 14.6 12.8 89 19 13   97.22     LegendNANA
05:00 12.3 10.9 92 21 9   97.25     LegendNANA
06:00 12.4 11.3 93 24 9   97.31     LegendNANA
07:00 11.7 9.8 88 20 7   97.36     LegendNANA
08:00 11.5 9.7 88 24 7   97.38     LegendNANA
09:00 17.0 9.8 62 27 13   97.40     LegendNANA
10:00 19.8 9.0 50 26 13   97.40     LegendNANA
11:00 22.3 8.3 41 25 9   97.40     LegendNANA
12:00 23.5 5.7 32 26 21   97.37     LegendNANA
13:00 24.5 4.3 27 24 16   97.34     LegendNANA
14:00 25.3 3.2 24 24 20   97.29     LegendNANA
15:00 25.4 3.2 24 24 21   97.26     LegendNANA
16:00 24.9 2.6 23 24 21   97.24     LegendNANA
17:00 23.3 4.5 30 24 18   97.25     LegendNANA
18:00 20.0 5.0 37 23 15   97.25     LegendNANA
19:00 15.2 5.3 52 23 13   97.26     LegendNANA
20:00 13.9 5.7 58 25 12   97.28     LegendNANA
21:00 12.8 6.1 64 25 11   97.30     LegendNANA
22:00 11.9 5.9 67 23 9   97.29     LegendNANA
23:00 10.9 5.7 70 25 9   97.27     LegendNANA

Notes on Data Quality.

Legend

  • E = Estimated
  • M = Missing
  • NA = Not Available*
  • [empty] = Indicates an unobserved value
Date modified: